Wind_Speed
41 42 44 46 47 48 49 52 53 54 57 59 60 61 63 64 65 67 68 68 68 67 67 66 65 65 65 65 64 64 63 62 62 61 60 59 59 59
46 46 48 49 51 52 53 55 56 58 59 60 60 61 63 64 65 65 65 64 63 61 59 59 59 59 58 57 56 55 55 55 54 53 52 52 52 52
49 50 52 54 55 56 57 57 58 58 58 59 60 61 62 63 63 62 61 60 58 56 55 54 53 52 51 50 50 50 50 50 49 48 47 47 46 46
53 54 56 57 57 57 57 57 56 57 58 58 59 60 61 60 59 58 56 54 52 51 49 48 47 46 45 45 45 46 45 45 44 44 44 43 43 42
57 58 57 57 57 57 56 56 56 57 57 57 57 58 57 57 55 52 50 48 47 45 43 42 41 41 41 41 41 40 40 40 39 39 39 40 40 40
59 58 57 56 56 56 55 55 55 55 55 55 55 54 53 52 49 46 44 42 41 40 40 39 38 38 38 38 37 37 37 36 36 36 36 37 37 38
57 57 56 55 54 54 54 53 53 53 53 53 51 50 48 46 44 41 38 36 36 36 36 36 36 36 36 36 35 35 34 33 33 33 33 34 34 35
56 55 54 53 53 53 52 52 51 50 50 48 46 44 43 41 37 35 34 33 31 31 32 33 34 34 34 33 34 33 33 31 31 30 30 30 30 31
54 53 53 52 52 52 50 49 48 47 45 43 41 39 36 33 31 30 30 30 29 28 29 31 32 33 33 32 32 32 32 31 30 29 28 27 27 26
52 52 52 50 49 48 47 45 44 43 40 38 35 32 29 27 26 26 26 27 29 30 30 31 32 33 33 31 31 31 31 30 29 28 26 24 23 23
51 50 48 47 45 43 41 40 38 37 34 31 27 24 23 23 23 24 25 26 28 29 30 30 30 31 32 32 33 32 30 29 28 26 24 22 21 20
46 44 42 41 39 36 34 33 31 29 27 24 20 19 20 20 21 23 25 27 28 28 29 29 29 29 29 32 32 31 30 29 27 24 22 20 19 18
41 38 35 33 30 28 26 24 22 21 19 17 17 17 18 20 22 24 25 27 28 28 28 28 28 28 30 30 31 30 29 28 25 22 20 17 15 15
31 28 25 23 21 19 17 15 14 13 13 13 14 16 18 20 22 24 25 27 27 27 27 27 27 28 28 29 29 29 29 26 23 20 17 14 11 11
18 16 15 13 11 10 8 8 8 8 9 11 13 15 18 20 22 23 25 26 26 26 25 25 25 27 28 28 29 29 26 24 22 19 15 11 7 5
8 6 5 4 3 2 2 3 4 6 9 11 13 16 18 20 22 23 24 25 25 24 24 23 24 25 27 28 28 27 25 23 21 18 14 11 7 4
2 3 3 4 4 3 3 4 5 7 9 12 14 16 18 20 21 23 24 24 22 22 23 23 23 25 26 26 26 25 24 23 21 19 16 13 10 7
8 8 8 9 8 8 7 7 8 9 11 13 15 17 19 20 22 23 23 23 22 22 22 22 23 24 25 25 25 25 24 23 22 20 19 17 14 12
12 12 12 11 10 10 9 9 10 11 12 14 16 18 20 22 23 23 24 23 23 22 21 21 22 23 24 24 25 25 24 24 23 22 21 20 18 17
15 14 13 12 11 11 10 11 11 12 13 15 17 19 21 23 24 24 24 23 23 22 21 21 22 22 24 25 25 26 25 24 24 24 23 22 21 21
14 13 13 12 12 12 12 12 13 14 15 16 18 20 21 23 24 24 24 23 23 22 21 21 22 23 24 26 26 25 26 25 25 25 25 24 24 24
14 13 13 12 12 12 12 13 13 14 15 17 18 20 21 22 23 24 24 23 23 22 21 21 22 23 23 24 25 25 26 26 25 25 25 25 25 25
14 13 13 13 13 13 13 13 14 15 16 17 18 20 21 21 22 23 23 23 22 22 22 21 21 22 22 23 24 25 25 26 26 25 25 25 25 25
Wind_Direction
287 288 290 291 292 292 293 293 293 293 294 294 293 293 293 293 293 294 294 294 294 294 294 293 292 291 290 289 288 286 284 282 280 278 277 275 273 271
287 288 290 291 292 293 294 294 294 294 295 295 294 294 294 295 295 296 296 296 296 296 296 295 295 295 294 293 291 289 287 284 282 279 277 275 273 271
287 289 291 293 293 294 294 294 294 294 295 295 295 295 295 296 297 299 299 299 299 298 298 299 299 299 297 296 294 292 289 286 283 280 278 275 273 270
287 289 290 292 292 292 293 293 294 294 295 296 296 296 297 298 300 301 302 301 301 301 302 302 302 302 302 301 300 297 293 289 285 281 278 275 272 270
287 288 289 290 291 291 292 293 294 295 296 296 297 298 299 301 302 303 303 303 304 305 306 307 309 310 309 308 306 303 298 294 289 284 279 275 273 271
285 287 288 289 289 290 292 293 294 295 296 297 298 300 301 302 303 304 304 305 307 310 311 312 314 315 314 313 311 308 304 298 293 287 282 277 274 271
285 286 287 288 289 290 291 292 294 295 296 298 300 301 302 302 304 305 305 308 309 311 313 315 317 318 317 317 316 313 309 303 297 291 285 280 275 271
285 286 287 287 287 288 289 291 292 294 296 299 301 302 302 302 303 305 307 309 311 314 315 317 319 320 320 319 318 317 315 309 303 297 289 283 277 272
285 285 285 286 287 288 289 291 292 294 296 298 300 301 301 302 304 307 310 313 316 318 319 320 321 322 323 322 321 319 317 313 308 302 294 287 280 274
284 284 285 285 287 288 290 291 293 295 296 298 300 300 300 303 307 310 313 316 318 321 323 324 324 324 324 324 324 322 319 316 312 306 298 290 281 274
284 285 285 286 287 289 290 291 293 295 297 299 300 300 303 307 311 315 318 320 321 323 324 325 325 325 325 327 327 326 323 320 316 309 301 292 282 273
286 286 286 286 287 287 288 290 293 296 299 301 302 305 310 314 317 321 322 323 323 323 323 324 324 325 327 328 329 329 327 325 321 315 307 296 283 272
286 285 285 284 285 286 288 291 293 297 301 306 311 316 320 323 325 325 326 326 326 325 325 326 328 329 332 333 333 334 333 330 326 322 316 305 289 273
285 283 282 282 284 285 288 291 295 301 308 316 322 326 329 330 330 329 329 329 329 329 329 330 333 335 338 340 341 341 340 338 336 332 327 318 299 278
286 284 282 280 278 280 286 295 305 315 326 333 336 337 337 335 335 335 335 335 334 334 336 338 340 343 345 347 349 350 350 351 350 348 345 343 331 301
289 284 277 264 259 274 305 324 340 350 352 349 347 345 343 343 344 344 344 343 342 342 344 347 350 352 353 355 357 360 2 2 3 5 6 7 7 3
89 113 120 114 106 96 74 49 29 16 6 359 355 354 354 355 355 355 354 354 354 354 355 356 358 359 2 4 6 9 11 14 17 21 25 29 32 38
101 105 107 106 100 89 75 57 41 26 15 9 6 5 6 5 4 4 4 4 5 5 6 6 7 8 10 13 16 18 21 24 27 32 36 42 50 59
100 103 102 98 90 80 66 53 40 30 23 18 17 17 16 13 12 11 11 11 13 13 14 15 16 18 19 22 24 26 29 33 38 42 46 53 60 68
102 100 96 88 78 68 59 49 41 34 30 28 26 23 20 18 17 17 17 17 19 20 21 22 23 26 28 30 31 33 36 40 45 49 54 60 66 73
98 92 84 76 67 59 53 47 42 39 37 32 27 23 21 19 20 20 21 22 24 25 26 27 29 32 34 34 36 38 42 46 51 55 61 66 71 76
88 82 74 66 60 55 51 48 45 42 36 29 25 23 21 21 22 23 25 27 28 30 31 32 34 36 38 39 42 44 48 52 57 62 67 71 75 79
78 72 66 61 56 53 51 50 46 40 32 28 25 23 23 23 24 26 27 29 31 33 35 37 38 39 41 43 46 49 52 56 60 66 70 74 77 80
Height
5789 5786 5784 5781 5778 5774 5770 5767 5763 5758 5753 5747 5741 5735 5729 5723 5717 5710 5703 5695 5688 5681 5674 5666 5659 5652 5645 5639 5633 5628 5623 5618 5615 5612 5610 5608 5607 5607
5777 5775 5772 5768 5765 5761 5757 5753 5749 5744 5739 5732 5726 5719 5712 5706 5699 5692 5685 5677 5670 5663 5655 5649 5641 5634 5628 5621 5615 5609 5604 5600 5596 5594 5592 5590 5590 5589
5765 5762 5758 5755 5751 5747 5743 5739 5734 5729 5724 5717 5710 5704 5697 5690 5683 5675 5667 5660 5653 5646 5639 5632 5625 5619 5612 5605 5599 5593 5588 5583 5580 5577 5575 5574 5574 5574
5751 5748 5744 5740 5737 5732 5728 5724 5719 5714 5709 5703 5696 5689 5682 5675 5668 5660 5652 5645 5639 5632 5626 5619 5612 5605 5598 5591 5585 5579 5573 5568 5565 5562 5560 5560 5559 5559
5737 5733 5729 5726 5722 5718 5714 5709 5704 5699 5694 5689 5682 5675 5668 5661 5654 5647 5639 5633 5626 5620 5613 5606 5600 5593 5586 5579 5573 5566 5560 5556 5552 5549 5547 5545 5545 5545
5722 5718 5714 5711 5707 5704 5699 5695 5690 5685 5680 5674 5668 5661 5654 5648 5642 5635 5629 5622 5616 5609 5602 5596 5590 5583 5576 5569 5563 5556 5550 5544 5540 5537 5534 5533 5532 5532
5707 5703 5700 5696 5693 5689 5685 5681 5677 5672 5667 5661 5655 5649 5643 5637 5631 5625 5620 5614 5607 5601 5595 5587 5581 5575 5568 5561 5554 5547 5540 5535 5530 5526 5523 5521 5520 5520
5692 5688 5685 5682 5679 5675 5672 5668 5664 5660 5655 5649 5644 5639 5633 5627 5622 5616 5611 5606 5601 5596 5588 5581 5574 5567 5560 5553 5546 5539 5532 5526 5521 5517 5514 5511 5510 5509
5677 5674 5671 5668 5665 5662 5658 5655 5652 5648 5644 5640 5635 5629 5624 5619 5614 5609 5604 5598 5593 5588 5582 5575 5568 5561 5554 5547 5539 5532 5525 5519 5513 5509 5505 5502 5500 5499
5663 5660 5657 5654 5652 5649 5646 5643 5640 5637 5634 5630 5626 5621 5617 5612 5607 5603 5598 5593 5586 5581 5575 5568 5561 5554 5547 5540 5533 5526 5518 5512 5506 5501 5496 5494 5492 5491
5649 5646 5643 5641 5639 5637 5635 5632 5630 5627 5625 5621 5618 5614 5610 5606 5602 5597 5593 5588 5581 5575 5569 5563 5556 5549 5541 5534 5526 5519 5512 5505 5499 5493 5489 5486 5484 5483
5634 5633 5631 5629 5628 5626 5625 5623 5621 5619 5617 5614 5611 5608 5605 5601 5597 5592 5587 5582 5576 5570 5564 5558 5551 5545 5538 5529 5521 5513 5505 5498 5492 5486 5482 5479 5477 5476
5622 5621 5620 5619 5618 5618 5617 5616 5615 5613 5611 5609 5606 5603 5600 5597 5592 5588 5582 5577 5571 5564 5559 5552 5546 5539 5532 5524 5516 5508 5500 5493 5486 5481 5476 5473 5471 5470
5611 5611 5611 5611 5611 5611 5611 5611 5610 5609 5607 5605 5603 5600 5597 5593 5588 5583 5578 5572 5566 5560 5554 5547 5541 5534 5527 5520 5512 5504 5496 5488 5482 5476 5472 5468 5466 5465
5604 5604 5605 5606 5607 5607 5608 5608 5608 5607 5605 5603 5601 5598 5594 5590 5585 5580 5574 5568 5562 5556 5550 5544 5538 5531 5524 5516 5509 5501 5493 5486 5480 5474 5470 5466 5464 5463
5600 5601 5602 5603 5604 5605 5606 5606 5606 5605 5604 5602 5599 5596 5592 5588 5583 5577 5571 5565 5559 5553 5547 5541 5535 5529 5522 5515 5507 5500 5493 5486 5480 5474 5470 5466 5464 5463
5600 5601 5602 5603 5604 5605 5606 5606 5606 5605 5604 5601 5598 5595 5591 5586 5581 5575 5569 5563 5557 5552 5546 5540 5534 5528 5522 5515 5508 5501 5494 5488 5482 5476 5472 5468 5466 5464
5602 5602 5604 5605 5606 5607 5607 5607 5606 5605 5603 5601 5598 5594 5590 5585 5580 5574 5569 5563 5557 5552 5546 5541 5535 5530 5524 5517 5511 5504 5497 5491 5485 5480 5476 5472 5470 5468
5605 5606 5607 5608 5609 5609 5609 5608 5607 5606 5604 5601 5598 5594 5590 5585 5580 5575 5569 5563 5558 5553 5548 5543 5538 5532 5527 5520 5514 5508 5502 5496 5490 5486 5481 5478 5475 5473
5609 5610 5611 5611 5612 5611 5611 5610 5609 5607 5605 5602 5599 5595 5591 5586 5581 5576 5570 5565 5560 5555 5550 5545 5540 5535 5530 5524 5518 5513 5507 5502 5497 5492 5488 5485 5482 5481
5614 5614 5615 5615 5614 5614 5613 5612 5610 5608 5606 5603 5600 5596 5592 5587 5582 5577 5572 5567 5562 5557 5553 5548 5543 5538 5533 5528 5524 5519 5513 5508 5504 5500 5496 5493 5491 5489
5618 5619 5618 5618 5617 5616 5615 5614 5612 5610 5608 5605 5601 5598 5594 5589 5584 5580 5575 5570 5565 5560 5556 5552 5547 5543 5539 5534 5530 5525 5520 5516 5511 5508 5505 5503 5500 5498
5623 5622 5622 5621 5620 5619 5617 5616 5614 5612 5610 5607 5603 5599 5595 5591 5587 5582 5578 5573 5568 5564 5560 5556 5552 5548 5544 5540 5535 5531 5527 5523 5520 5517 5514 5511 5509 5507